TimeADT,TemperatureF,Dew PointF,Humidity,Sea Level PressureIn,VisibilityMPH,Wind Direction,Wind SpeedMPH,Gust SpeedMPH,PrecipitationIn,Events,Conditions,WindDirDegrees,DateUTC
12:00 AM,44,41,85,29.78,,West,5.8,,,,,280,2012-10-23 03:00:00
12:00 AM,44.4,41.0,88,29.78,-9999.0,WNW,5.8,-,N/A,,Unknown,290,2012-10-23 03:00:00
1:00 AM,45.1,40.5,84,29.79,-9999.0,WNW,6.9,-,N/A,,Unknown,290,2012-10-23 04:00:00
2:00 AM,45.7,40.5,82,29.80,-9999.0,West,5.8,-,N/A,,Unknown,280,2012-10-23 05:00:00
3:00 AM,43,40,84,29.81,,West,6.9,,,,,260,2012-10-23 06:00:00
3:00 AM,43.0,39.7,88,29.81,-9999.0,West,6.9,-,N/A,,Unknown,260,2012-10-23 06:00:00
5:00 AM,37.4,31.5,79,29.83,-9999.0,WNW,4.6,-,N/A,,Unknown,290,2012-10-23 08:00:00
6:00 AM,42,34,65,29.84,,NW,8.1,,,,,310,2012-10-23 09:00:00
6:00 AM,41.9,34.2,74,29.84,-9999.0,NW,8.1,-,N/A,,Unknown,310,2012-10-23 09:00:00
7:00 AM,41.0,34.2,77,29.86,-9999.0,WNW,5.8,-,N/A,,Unknown,300,2012-10-23 10:00:00
8:00 AM,40.8,35.1,80,29.88,-9999.0,West,6.9,-,N/A,,Unknown,280,2012-10-23 11:00:00
9:00 AM,45,35,59,29.90,,WNW,8.1,,,,,300,2012-10-23 12:00:00
9:00 AM,45.0,35.2,69,29.90,-9999.0,WNW,8.1,-,N/A,,Unknown,300,2012-10-23 12:00:00
10:00 AM,46.6,35.2,65,29.91,-9999.0,NW,11.5,18.4,N/A,,Unknown,310,2012-10-23 13:00:00
12:00 PM,49.6,35.4,58,29.90,-9999.0,NW,17.3,24.2,N/A,,Unknown,310,2012-10-23 15:00:00
1:00 PM,50.9,36.1,57,29.89,-9999.0,NW,13.8,21.9,N/A,,Unknown,310,2012-10-23 16:00:00
2:00 PM,51.8,36.3,56,29.88,-9999.0,WNW,13.8,24.2,N/A,,Unknown,290,2012-10-23 17:00:00
3:00 PM,52,36,44,29.86,,WNW,15.0,,,,,300,2012-10-23 18:00:00
3:00 PM,51.8,36.5,56,29.86,-9999.0,WNW,15.0,23.0,N/A,,Unknown,300,2012-10-23 18:00:00
4:00 PM,51.3,36.0,56,29.88,-9999.0,WNW,12.7,23.0,N/A,,Unknown,300,2012-10-23 19:00:00
5:00 PM,51.1,36.3,57,29.89,-9999.0,WNW,11.5,-,N/A,,Unknown,290,2012-10-23 20:00:00
6:00 PM,48,35,51,29.93,,WNW,8.1,,,,,300,2012-10-23 21:00:00
6:00 PM,48.0,35.4,62,29.93,-9999.0,WNW,8.1,-,N/A,,Unknown,300,2012-10-23 21:00:00
7:00 PM,42.4,34.5,74,29.95,-9999.0,West,3.5,-,N/A,,Unknown,280,2012-10-23 22:00:00
8:00 PM,38.1,33.3,83,29.96,-9999.0,West,3.5,-,N/A,,Unknown,270,2012-10-23 23:00:00
9:00 PM,38,34,81,29.98,,West,5.8,,,,,260,2012-10-24 00:00:00
9:00 PM,38.3,34.3,86,29.98,-9999.0,West,5.8,-,N/A,,Unknown,260,2012-10-24 00:00:00
10:00 PM,37.2,34.2,89,30.00,-9999.0,West,5.8,-,N/A,,Unknown,260,2012-10-24 01:00:00
11:00 PM,37.6,34.5,89,30.00,-9999.0,West,6.9,-,N/A,,Unknown,270,2012-10-24 02:00:00